Flag for Costa Rica Weather past 2 weeks in Alajuela, Costa Rica

Now
70 °F

Passing clouds.


Feels Like: 70 °F
Forecast: 69 / 82 °F
Wind: 8 mph from East

Location: Juan Santamaria

Current Time: Sep 1, 2015 at 1:05:15 AM

Latest Report: Sep 1, 2015 at 12:00 AM


Visibility: N/A

Pressure: 30.05 "Hg (26.89 "Hg at 955m altitude)

Humidity: 83%

Dew point: 64 °F

Location of AlajuelaLocation

Historic Weather in Alajuela — Graph

°F

Alajuela temperature yesterday

Maximum temperature yesterday: 82 °F (at 9:00 AM)
Minimum temperature yesterday: 66 °F (at 1:00 AM)
Average temperature yesterday: 73 °F

Past Weeks' High & Low Weather Summary

 TemperatureHumidityPressure
High86 °F (Aug 19, 12:00 PM)100% (Aug 22, 4:00 PM)30.09 "Hg (Aug 22, 4:00 PM)
Low63 °F (Aug 25, 2:00 AM)37% (Aug 26, 10:00 AM)28.88 "Hg (Aug 24, 12:00 AM)
Average74 °F71%29.99 "Hg
* Reported Midnight between Aug 16 and Aug 17 — Midnight between Aug 31 and Sep 1, Alajuela, Weather by CustomWeather, © 2015

Note: Actual official high and low records may vary slightly from our data, if they occured in-between our weather recording intervals... More about our weather records

Advertising

Alajuela weather history for previous 24 hours

 ConditionsComfort  
Time TempWeatherWind HumidityBarometerVisibility
12:00 AM
Tue, Sep 1
70 °FPassing clouds.8 mph83%30.05 "HgN/A
11:00 PM
Mon, Aug 31
68 °FPassing clouds.9 mph94%30.08 "HgN/A
10:00 PM70 °FPassing clouds.7 mph88%30.08 "HgN/A
9:00 PM70 °FPassing clouds.3 mph100%30.05 "HgN/A
8:00 PM70 °FPassing clouds.2 mph100%30.06 "HgN/A
7:00 PM72 °FLight rain. Fog.No wind94%30.04 "Hg5 mi
6:00 PM70 °FLight rain. Partly cloudy.No wind100%30.02 "HgN/A
5:00 PM70 °FBroken clouds.No wind100%30.01 "HgN/A
3:00 PM70 °FLight rain. Broken clouds.2 mph100%30.01 "Hg5 mi
2:00 PM75 °FStrong thunderstorms. Broken clouds.12 mph83%30.01 "Hg2 mi
1:00 PM79 °FScattered showers. Scattered clouds.12 mph74%30.00 "HgN/A
12:00 PM81 °FScattered clouds.8 mph70%30.03 "HgN/A
11:00 AM81 °FScattered clouds.10 mph66%30.04 "HgN/A
10:00 AM81 °FScattered clouds.9 mph62%30.04 "HgN/A
9:00 AM82 °FSunny.5 mph51%30.04 "Hg10 mi
8:00 AM79 °FSunny.8 mph61%30.04 "Hg10 mi
7:00 AM73 °FSunny.8 mph74%30.03 "Hg10 mi
6:00 AM72 °FSunny.7 mph73%30.00 "Hg10 mi
5:00 AM70 °FPassing clouds.3 mph78%29.98 "HgN/A
4:00 AM70 °FPassing clouds.5 mph78%29.98 "HgN/A
3:00 AM68 °FPassing clouds.5 mph83%29.99 "HgN/A
2:00 AM68 °FPassing clouds.5 mph83%30.00 "HgN/A
1:00 AM66 °FPassing clouds.6 mph94%30.03 "HgN/A
Weather by CustomWeather, © 2015

See weather overviewHow to use our weather pages